timestamp,wind_dir_avg,wind_spd_avg,wind_spd_max_dir,wind_spd_gust,battery_voltage,lat,long
2023-10-17 00:04:00+00:00,13.0,13.98,20.0,15.58,12.41,47.59359,-54.27349
2023-10-17 00:14:01+00:00,12.0,13.77,13.0,16.68,12.41,47.59359,-54.27349
2023-10-17 00:24:01+00:00,14.0,14.08,13.0,19.9,12.41,47.59359,-54.27349
2023-10-17 00:34:01+00:00,356.0,14.19,3.0,17.41,12.41,47.59359,-54.27349
2023-10-17 00:44:01+00:00,353.0,12.88,357.0,14.22,12.41,47.59359,-54.27349
2023-10-17 00:54:01+00:00,355.0,11.29,11.0,13.42,12.41,47.59359,-54.27349
2023-10-17 01:04:01+00:00,10.0,13.44,16.0,15.81,12.41,47.59359,-54.27349
2023-10-17 01:14:01+00:00,355.0,13.21,352.0,16.2,12.41,47.59359,-54.27349
2023-10-17 01:24:01+00:00,355.0,14.93,14.0,19.72,12.41,47.59359,-54.27349
2023-10-17 01:34:01+00:00,8.0,14.33,17.0,17.54,12.41,47.59359,-54.27349
2023-10-17 01:44:01+00:00,353.0,14.32,6.0,16.86,12.41,47.59359,-54.27349
2023-10-17 01:54:01+00:00,351.0,12.38,353.0,14.18,12.41,47.59359,-54.27349
2023-10-17 02:04:01+00:00,357.0,13.41,358.0,15.36,12.41,47.59359,-54.27349
2023-10-17 02:14:01+00:00,359.0,13.29,355.0,15.74,12.41,47.59359,-54.27349
2023-10-17 02:24:01+00:00,1.0,13.05,354.0,16.05,12.41,47.59359,-54.27349
2023-10-17 02:34:01+00:00,0.0,15.44,7.0,18.74,12.41,47.59359,-54.27349
2023-10-17 02:44:01+00:00,3.0,11.61,17.0,14.05,12.41,47.59359,-54.27349
2023-10-17 02:54:01+00:00,18.0,14.23,17.0,16.32,12.41,47.59359,-54.27349
2023-10-17 03:04:01+00:00,3.0,11.23,20.0,13.74,12.41,47.59359,-54.27349
2023-10-17 03:14:01+00:00,15.0,11.99,19.0,13.73,12.33,47.59359,-54.27349
2023-10-17 03:24:01+00:00,17.0,13.84,13.0,16.21,12.33,47.59359,-54.27349
2023-10-17 03:34:01+00:00,6.0,13.71,18.0,16.21,12.33,47.59359,-54.27349
2023-10-17 03:44:01+00:00,21.0,11.01,19.0,14.83,12.33,47.59359,-54.27349
2023-10-17 03:54:01+00:00,18.0,13.66,17.0,16.57,12.33,47.59359,-54.27349
2023-10-17 04:04:01+00:00,17.0,12.98,18.0,15.06,12.33,47.59359,-54.27349
2023-10-17 04:14:01+00:00,16.0,15.0,15.0,17.22,12.33,47.59359,-54.27349
2023-10-17 04:24:01+00:00,16.0,12.2,15.0,14.79,12.33,47.59359,-54.27349
2023-10-17 04:34:01+00:00,18.0,11.1,19.0,13.7,12.33,47.59359,-54.27349
2023-10-17 04:44:01+00:00,19.0,11.09,21.0,14.31,12.33,47.59359,-54.27349
2023-10-17 04:54:01+00:00,14.0,13.45,16.0,16.3,12.33,47.59359,-54.27349
2023-10-17 05:04:01+00:00,12.0,12.39,19.0,14.82,12.33,47.59359,-54.27349
2023-10-17 05:14:00+00:00,13.0,12.11,15.0,13.77,12.33,47.59359,-54.27349
2023-10-17 05:24:00+00:00,14.0,10.34,11.0,13.12,12.33,47.59359,-54.27349
2023-10-17 05:34:00+00:00,15.0,12.43,14.0,14.38,12.33,47.59359,-54.27349
2023-10-17 05:44:00+00:00,14.0,11.76,16.0,13.77,12.33,47.59359,-54.27349
2023-10-17 05:54:00+00:00,17.0,10.81,15.0,12.3,12.33,47.59359,-54.27349
2023-10-17 06:04:00+00:00,10.0,10.19,16.0,12.25,12.33,47.59359,-54.27349
2023-10-17 06:14:01+00:00,12.0,10.3,17.0,12.89,12.33,47.59359,-54.27349
2023-10-17 06:24:01+00:00,15.0,11.24,13.0,13.0,12.33,47.59359,-54.27349
2023-10-17 06:34:01+00:00,13.0,12.08,13.0,14.01,12.33,47.59359,-54.27349
2023-10-17 06:44:01+00:00,10.0,10.58,11.0,12.43,12.33,47.59359,-54.27349
2023-10-17 06:54:01+00:00,1.0,11.55,6.0,13.22,12.33,47.59359,-54.27349
2023-10-17 07:04:01+00:00,18.0,11.81,21.0,14.65,12.33,47.59359,-54.27349
2023-10-17 07:14:00+00:00,5.0,11.96,2.0,13.37,12.25,47.59359,-54.27349
2023-10-17 07:24:00+00:00,4.0,11.96,8.0,13.72,12.25,47.59359,-54.27349
2023-10-17 07:34:00+00:00,5.0,10.56,2.0,12.46,12.25,47.59359,-54.27349
2023-10-17 07:44:00+00:00,2.0,9.73,2.0,11.38,12.25,47.59359,-54.27349
2023-10-17 07:54:00+00:00,359.0,10.97,5.0,12.24,12.25,47.59359,-54.27349
2023-10-17 08:04:00+00:00,358.0,10.97,0.0,12.35,12.25,47.59359,-54.27349
2023-10-17 08:14:00+00:00,3.0,11.64,0.0,13.26,12.25,47.59359,-54.27349
2023-10-17 08:24:00+00:00,358.0,11.63,0.0,13.14,12.25,47.59359,-54.27349
2023-10-17 08:34:00+00:00,3.0,11.48,2.0,13.68,12.25,47.59359,-54.27349
2023-10-17 08:44:00+00:00,5.0,10.21,2.0,12.47,12.25,47.59359,-54.27349
2023-10-17 08:54:00+00:00,2.0,11.51,1.0,13.12,12.25,47.59359,-54.27349
2023-10-17 09:04:00+00:00,359.0,10.59,358.0,11.7,12.25,47.59359,-54.27349
2023-10-17 09:14:00+00:00,4.0,11.34,2.0,13.99,12.25,47.59359,-54.27349
2023-10-17 09:24:00+00:00,9.0,9.92,14.0,12.21,12.25,47.59359,-54.27349
2023-10-17 09:34:00+00:00,4.0,11.8,5.0,13.77,12.25,47.59359,-54.27349
2023-10-17 09:44:00+00:00,11.0,11.13,9.0,12.81,12.25,47.59359,-54.27349
2023-10-17 09:54:00+00:00,10.0,11.68,9.0,13.41,12.25,47.59359,-54.27349
2023-10-17 10:04:00+00:00,7.0,10.96,14.0,12.84,12.25,47.59359,-54.27349
2023-10-17 10:14:01+00:00,7.0,8.53,13.0,11.58,12.25,47.59359,-54.27349
2023-10-17 10:24:01+00:00,8.0,9.44,6.0,11.02,12.25,47.59359,-54.27349
2023-10-17 10:34:01+00:00,4.0,9.87,6.0,12.19,12.25,47.59359,-54.27349
2023-10-17 10:44:01+00:00,1.0,7.91,0.0,10.55,12.25,47.59359,-54.27349
2023-10-17 10:54:01+00:00,2.0,10.48,1.0,11.6,12.25,47.59359,-54.27349
2023-10-17 11:04:01+00:00,1.0,8.67,1.0,10.27,12.25,47.59359,-54.27349
2023-10-17 11:14:00+00:00,13.0,8.85,5.0,10.64,12.25,47.59359,-54.27349
2023-10-17 11:24:00+00:00,13.0,10.33,12.0,12.08,12.25,47.59359,-54.27349
2023-10-17 11:34:00+00:00,5.0,8.07,2.0,10.69,12.25,47.59359,-54.27349
2023-10-17 11:44:00+00:00,1.0,8.83,0.0,10.1,12.25,47.59359,-54.27349
2023-10-17 11:54:00+00:00,7.0,8.15,12.0,9.66,12.25,47.59359,-54.27349
2023-10-17 12:04:00+00:00,5.0,9.85,0.0,12.0,12.25,47.59359,-54.27349
2023-10-17 12:14:01+00:00,17.0,9.2,6.0,11.16,12.81,47.59359,-54.27349
2023-10-17 12:24:01+00:00,17.0,10.27,16.0,11.84,12.81,47.59359,-54.27349
2023-10-17 12:34:01+00:00,12.0,8.67,14.0,9.64,12.81,47.59359,-54.27349
2023-10-17 12:44:01+00:00,14.0,8.7,12.0,10.22,12.81,47.59359,-54.27349
2023-10-17 12:54:01+00:00,14.0,8.82,13.0,9.79,12.81,47.59359,-54.27349
2023-10-17 13:04:01+00:00,11.0,8.77,11.0,11.11,12.81,47.59359,-54.27349
2023-10-17 13:14:00+00:00,25.0,9.63,26.0,11.24,13.6,47.59359,-54.27349
2023-10-17 13:24:00+00:00,32.0,10.06,34.0,11.06,13.6,47.59359,-54.27349
2023-10-17 13:34:00+00:00,24.0,8.46,27.0,9.8,13.6,47.59359,-54.27349
2023-10-17 13:44:00+00:00,19.0,7.44,33.0,8.57,13.6,47.59359,-54.27349
2023-10-17 13:54:00+00:00,18.0,8.87,21.0,10.29,13.6,47.59359,-54.27349
2023-10-17 14:04:00+00:00,28.0,8.17,21.0,9.3,13.6,47.59359,-54.27349
2023-10-17 14:14:01+00:00,27.0,7.6,31.0,8.97,13.68,47.59359,-54.27349
2023-10-17 14:24:01+00:00,11.0,9.86,9.0,11.71,13.68,47.59359,-54.27349
2023-10-17 14:34:01+00:00,35.0,9.8,37.0,11.31,13.68,47.59359,-54.27349
2023-10-17 14:44:01+00:00,24.0,8.95,21.0,9.75,13.68,47.59359,-54.27349
2023-10-17 14:54:01+00:00,43.0,7.25,45.0,8.04,13.68,47.59359,-54.27349
2023-10-17 15:04:01+00:00,13.0,7.92,13.0,9.56,13.68,47.59359,-54.27349
2023-10-17 15:14:00+00:00,27.0,7.05,14.0,8.58,13.68,47.59359,-54.27349
2023-10-17 15:24:00+00:00,43.0,9.37,43.0,10.12,13.68,47.59359,-54.27349
2023-10-17 15:34:00+00:00,40.0,7.22,39.0,8.9,13.68,47.59359,-54.27349
2023-10-17 15:44:00+00:00,25.0,8.27,28.0,9.06,13.68,47.59359,-54.27349
2023-10-17 15:54:00+00:00,33.0,10.37,35.0,11.56,13.68,47.59359,-54.27349
2023-10-17 16:04:00+00:00,9.0,7.39,24.0,8.94,13.68,47.59359,-54.27349
2023-10-17 16:14:00+00:00,42.0,7.36,38.0,9.02,13.6,47.59359,-54.27349
2023-10-17 16:24:00+00:00,42.0,5.71,48.0,6.98,13.6,47.59359,-54.27349
2023-10-17 16:34:00+00:00,60.0,5.5,52.0,6.69,13.6,47.59359,-54.27349
2023-10-17 16:44:00+00:00,13.0,5.89,25.0,8.07,13.6,47.59359,-54.27349
2023-10-17 16:54:00+00:00,19.0,4.24,20.0,4.54,13.6,47.59359,-54.27349
2023-10-17 17:04:00+00:00,40.0,2.82,39.0,3.44,13.6,47.59359,-54.27349
2023-10-17 17:14:01+00:00,2.0,2.55,6.0,2.9,13.84,47.59359,-54.27349
2023-10-17 17:24:01+00:00,28.0,6.27,23.0,7.33,13.84,47.59359,-54.27349
2023-10-17 17:34:01+00:00,12.0,5.04,13.0,6.18,13.84,47.59359,-54.27349
2023-10-17 17:44:01+00:00,11.0,4.72,14.0,5.56,13.84,47.59359,-54.27349
2023-10-17 17:54:01+00:00,14.0,3.55,12.0,4.25,13.84,47.59359,-54.27349
2023-10-17 18:04:01+00:00,28.0,4.6,28.0,5.12,13.84,47.59359,-54.27349
2023-10-17 18:14:00+00:00,35.0,4.99,42.0,5.84,13.76,47.59359,-54.27349
2023-10-17 18:24:00+00:00,65.0,4.12,69.0,4.95,13.76,47.59359,-54.27349
2023-10-17 18:34:00+00:00,47.0,3.38,49.0,4.24,13.76,47.59359,-54.27349
2023-10-17 18:44:00+00:00,47.0,5.46,51.0,6.15,13.76,47.59359,-54.27349
2023-10-17 18:54:00+00:00,40.0,6.4,38.0,7.65,13.76,47.59359,-54.27349
2023-10-17 19:04:00+00:00,31.0,6.86,34.0,7.67,13.76,47.59359,-54.27349
2023-10-17 19:14:00+00:00,44.0,5.73,45.0,6.67,13.44,47.59359,-54.27349
2023-10-17 19:24:00+00:00,51.0,6.12,56.0,7.49,13.44,47.59359,-54.27349
2023-10-17 19:34:00+00:00,58.0,4.42,60.0,5.15,13.44,47.59359,-54.27349
2023-10-17 19:44:00+00:00,46.0,2.57,52.0,3.18,13.44,47.59359,-54.27349
2023-10-17 19:54:00+00:00,29.0,4.43,32.0,4.96,13.44,47.59359,-54.27349
2023-10-17 20:04:00+00:00,37.0,5.58,44.0,6.13,13.44,47.59359,-54.27349
2023-10-17 20:14:00+00:00,43.0,4.98,39.0,5.79,13.13,47.59359,-54.27349
2023-10-17 20:24:00+00:00,46.0,4.49,43.0,5.09,13.13,47.59359,-54.27349
2023-10-17 20:34:00+00:00,49.0,5.4,47.0,6.56,13.13,47.59359,-54.27349
2023-10-17 20:44:00+00:00,26.0,3.89,28.0,4.22,13.13,47.59359,-54.27349
2023-10-17 20:54:00+00:00,18.0,4.54,26.0,5.07,13.13,47.59359,-54.27349
2023-10-17 21:04:00+00:00,22.0,4.81,23.0,5.43,13.13,47.59359,-54.27349
2023-10-17 21:14:00+00:00,30.0,5.28,19.0,6.78,12.65,47.59359,-54.27349
2023-10-17 21:24:00+00:00,14.0,4.64,18.0,5.05,12.65,47.59359,-54.27349
2023-10-17 21:34:00+00:00,19.0,5.52,16.0,6.51,12.65,47.59359,-54.27349
2023-10-17 21:44:00+00:00,38.0,3.57,38.0,4.87,12.65,47.59359,-54.27349
2023-10-17 21:54:00+00:00,80.0,3.53,73.0,4.51,12.65,47.59359,-54.27349
2023-10-17 22:04:00+00:00,75.0,5.06,69.0,6.21,12.65,47.59359,-54.27349
2023-10-17 22:14:00+00:00,73.0,5.92,85.0,6.94,12.49,47.59359,-54.27349
2023-10-17 22:24:00+00:00,64.0,5.67,61.0,6.98,12.49,47.59359,-54.27349
2023-10-17 22:34:00+00:00,54.0,4.34,49.0,5.26,12.49,47.59359,-54.27349
2023-10-17 22:44:00+00:00,59.0,5.93,56.0,6.89,12.49,47.59359,-54.27349
2023-10-17 22:54:00+00:00,76.0,4.85,81.0,6.69,12.49,47.59359,-54.27349
2023-10-17 23:04:00+00:00,64.0,6.75,61.0,7.59,12.49,47.59359,-54.27349
2023-10-17 23:14:01+00:00,66.0,5.7,68.0,7.24,12.41,47.59359,-54.27349
2023-10-17 23:24:01+00:00,68.0,4.97,73.0,6.08,12.41,47.59359,-54.27349
2023-10-17 23:34:01+00:00,50.0,4.21,46.0,5.36,12.41,47.59359,-54.27349
2023-10-17 23:44:01+00:00,38.0,5.53,39.0,6.65,12.41,47.59359,-54.27349
2023-10-17 23:54:01+00:00,50.0,6.16,52.0,7.1,12.41,47.59359,-54.27349
